QPF
0.00 0.00 0.01 0.01 0.01 0.00 0.00 0.00 0.01 0.01 0.01 0.01 0.01 0.02 0.01 0.01 0.01 0.01 0.01 0.01 0.02 0.03 0.03 0.03 0.03 0.02 0.02 0.02 0.02 0.02 0.02 0.02 0.03 0.03 0.02 0.02 0.02 0.01 0.01 0.01 0.00 0.00 0.01
0.00 0.00 0.01 0.01 0.01 0.00 0.00 0.00 0.00 0.00 0.01 0.01 0.01 0.01 0.01 0.01 0.01 0.01 0.01 0.01 0.02 0.02 0.02 0.03 0.02 0.02 0.03 0.02 0.01 0.01 0.01 0.01 0.02 0.03 0.04 0.03 0.02 0.03 0.02 0.02 0.01 0.00 0.00
0.00 0.01 0.01 0.01 0.00 0.00 0.00 0.00 0.00 0.00 0.01 0.01 0.01 0.01 0.01 0.02 0.02 0.02 0.02 0.01 0.01 0.01 0.01 0.01 0.02 0.02 0.02 0.01 0.01 0.00 0.01 0.01 0.02 0.03 0.04 0.04 0.03 0.03 0.03 0.02 0.02 0.01 0.00
0.00 0.00 0.01 0.01 0.01 0.00 0.00 0.00 0.00 0.00 0.01 0.01 0.02 0.01 0.01 0.02 0.02 0.02 0.01 0.01 0.01 0.02 0.02 0.02 0.02 0.02 0.02 0.01 0.01 0.01 0.01 0.02 0.02 0.02 0.02 0.02 0.02 0.02 0.02 0.02 0.02 0.02 0.01
0.01 0.00 0.01 0.01 0.01 0.00 0.00 0.00 0.00 0.00 0.00 0.01 0.02 0.01 0.01 0.01 0.01 0.01 0.01 0.01 0.02 0.03 0.02 0.02 0.02 0.03 0.02 0.02 0.01 0.01 0.02 0.02 0.03 0.03 0.01 0.01 0.01 0.01 0.01 0.01 0.02 0.02 0.01
0.01 0.01 0.01 0.01 0.00 0.00 0.00 0.00 0.00 0.00 0.00 0.00 0.01 0.01 0.01 0.01 0.01 0.02 0.03 0.03 0.02 0.02 0.02 0.02 0.02 0.02 0.02 0.02 0.02 0.01 0.01 0.01 0.02 0.02 0.02 0.01 0.01 0.01 0.01 0.02 0.02 0.01 0.01
0.01 0.01 0.01 0.00 0.00 0.00 0.00 0.00 0.00 0.00 0.00 0.00 0.00 0.00 0.01 0.00 0.00 0.01 0.02 0.03 0.03 0.02 0.01 0.01 0.01 0.01 0.01 0.01 0.01 0.01 0.01 0.01 0.01 0.01 0.01 0.01 0.01 0.01 0.01 0.01 0.01 0.01 0.01
0.00 0.00 0.00 0.00 0.00 0.00 0.00 0.00 0.00 0.00 0.00 0.00 0.00 0.00 0.01 0.00 0.00 0.00 0.00 0.01 0.03 0.02 0.01 0.01 0.01 0.01 0.01 0.01 0.01 0.01 0.01 0.01 0.01 0.01 0.01 0.01 0.01 0.01 0.01 0.01 0.01 0.01 0.01
0.00 0.00 0.00 0.00 0.00 0.00 0.00 0.00 0.00 0.00 0.00 0.00 0.00 0.00 0.00 0.00 0.00 0.00 0.00 0.00 0.01 0.02 0.01 0.01 0.01 0.01 0.01 0.01 0.01 0.01 0.01 0.00 0.00 0.00 0.01 0.01 0.01 0.01 0.01 0.01 0.01 0.01 0.01
0.00 0.00 0.00 0.01 0.01 0.01 0.00 0.00 0.00 0.01 0.00 0.01 0.01 0.00 0.00 0.00 0.00 0.00 0.00 0.00 0.01 0.01 0.01 0.01 0.01 0.01 0.01 0.01 0.01 0.01 0.01 0.00 0.00 0.00 0.00 0.00 0.00 0.00 0.01 0.01 0.02 0.03 0.02
0.01 0.01 0.01 0.01 0.01 0.01 0.01 0.00 0.00 0.01 0.01 0.00 0.00 0.00 0.00 0.00 0.00 0.00 0.00 0.00 0.01 0.01 0.01 0.01 0.01 0.01 0.01 0.00 0.00 0.01 0.01 0.01 0.00 0.00 0.00 0.00 0.00 0.00 0.00 0.01 0.01 0.02 0.03
0.01 0.01 0.01 0.01 0.01 0.01 0.01 0.01 0.01 0.01 0.01 0.01 0.01 0.01 0.01 0.01 0.01 0.01 0.01 0.01 0.01 0.01 0.01 0.01 0.01 0.01 0.01 0.01 0.00 0.01 0.01 0.01 0.00 0.00 0.00 0.00 0.00 0.00 0.00 0.01 0.01 0.01 0.01
0.01 0.01 0.01 0.01 0.01 0.01 0.01 0.01 0.01 0.01 0.01 0.01 0.01 0.01 0.01 0.01 0.01 0.01 0.02 0.02 0.01 0.01 0.01 0.01 0.01 0.01 0.01 0.01 0.00 0.01 0.00 0.00 0.00 0.00 0.00 0.00 0.00 0.01 0.01 0.01 0.01 0.01 0.02
0.01 0.02 0.01 0.02 0.02 0.02 0.02 0.02 0.02 0.01 0.02 0.02 0.02 0.01 0.01 0.01 0.02 0.02 0.02 0.03 0.02 0.02 0.02 0.02 0.01 0.01 0.01 0.01 0.01 0.01 0.01 0.01 0.01 0.01 0.00 0.00 0.00 0.00 0.00 0.01 0.01 0.01 0.01
0.01 0.01 0.01 0.01 0.02 0.02 0.03 0.03 0.03 0.03 0.02 0.03 0.02 0.01 0.01 0.01 0.02 0.02 0.02 0.02 0.02 0.02 0.02 0.02 0.01 0.01 0.01 0.01 0.01 0.01 0.01 0.01 0.01 0.01 0.01 0.01 0.01 0.01 0.01 0.00 0.00 0.00 0.01
0.03 0.02 0.02 0.01 0.02 0.02 0.02 0.02 0.02 0.02 0.02 0.02 0.02 0.02 0.02 0.02 0.03 0.03 0.03 0.03 0.02 0.02 0.02 0.02 0.02 0.01 0.01 0.01 0.01 0.01 0.01 0.01 0.01 0.01 0.01 0.01 0.01 0.01 0.01 0.01 0.01 0.01 0.01
0.01 0.02 0.02 0.02 0.02 0.03 0.03 0.02 0.02 0.02 0.02 0.02 0.02 0.02 0.03 0.03 0.04 0.04 0.04 0.03 0.03 0.03 0.02 0.02 0.02 0.02 0.01 0.01 0.01 0.01 0.01 0.01 0.01 0.01 0.01 0.01 0.01 0.01 0.01 0.01 0.01 0.01 0.01
0.01 0.01 0.01 0.02 0.02 0.02 0.03 0.03 0.03 0.02 0.02 0.02 0.02 0.03 0.03 0.04 0.05 0.05 0.05 0.04 0.04 0.04 0.04 0.04 0.03 0.03 0.02 0.02 0.02 0.02 0.01 0.01 0.01 0.01 0.01 0.01 0.01 0.01 0.01 0.01 0.01 0.01 0.01
0.01 0.01 0.01 0.02 0.02 0.02 0.02 0.02 0.03 0.03 0.03 0.04 0.03 0.03 0.04 0.04 0.05 0.05 0.04 0.03 0.03 0.04 0.05 0.06 0.05 0.05 0.04 0.04 0.04 0.03 0.02 0.02 0.01 0.01 0.01 0.01 0.01 0.01 0.01 0.01 0.01 0.01 0.01
0.01 0.02 0.03 0.03 0.02 0.02 0.02 0.02 0.03 0.04 0.05 0.05 0.04 0.04 0.03 0.03 0.03 0.03 0.04 0.03 0.03 0.03 0.04 0.04 0.04 0.04 0.04 0.04 0.04 0.04 0.04 0.03 0.03 0.02 0.02 0.02 0.01 0.01 0.01 0.01 0.01 0.01 0.01
0.01 0.02 0.02 0.03 0.03 0.03 0.03 0.04 0.04 0.05 0.04 0.04 0.04 0.04 0.05 0.04 0.04 0.04 0.04 0.03 0.03 0.03 0.03 0.03 0.03 0.03 0.03 0.03 0.03 0.03 0.03 0.02 0.02 0.02 0.02 0.02 0.02 0.02 0.01 0.01 0.01 0.01 0.01
0.01 0.01 0.02 0.03 0.02 0.03 0.03 0.03 0.03 0.03 0.04 0.04 0.04 0.04 0.05 0.05 0.06 0.06 0.06 0.05 0.05 0.05 0.04 0.04 0.04 0.03 0.03 0.02 0.02 0.02 0.02 0.02 0.02 0.02 0.02 0.02 0.01 0.01 0.01 0.01 0.01 0.01 0.01
0.01 0.01 0.02 0.02 0.02 0.02 0.02 0.02 0.02 0.03 0.03 0.03 0.03 0.03 0.04 0.05 0.05 0.05 0.05 0.04 0.04 0.04 0.04 0.04 0.03 0.03 0.03 0.02 0.02 0.02 0.03 0.03 0.03 0.02 0.02 0.02 0.01 0.01 0.01 0.01 0.01 0.02 0.02
0.01 0.01 0.02 0.02 0.03 0.03 0.02 0.02 0.03 0.03 0.03 0.03 0.03 0.03 0.04 0.04 0.04 0.04 0.03 0.03 0.03 0.03 0.03 0.03 0.03 0.02 0.02 0.02 0.02 0.02 0.02 0.02 0.02 0.03 0.02 0.02 0.02 0.01 0.01 0.01 0.01 0.01 0.02
0.01 0.01 0.01 0.01 0.02 0.02 0.03 0.03 0.03 0.03 0.03 0.03 0.04 0.04 0.05 0.04 0.04 0.03 0.03 0.03 0.03 0.03 0.03 0.03 0.03 0.03 0.03 0.03 0.03 0.03 0.03 0.03 0.03 0.03 0.02 0.02 0.02 0.01 0.01 0.01 0.01 0.01 0.02
0.01 0.01 0.01 0.01 0.02 0.02 0.03 0.02 0.02 0.02 0.02 0.03 0.03 0.03 0.04 0.04 0.04 0.03 0.03 0.03 0.04 0.04 0.03 0.03 0.03 0.03 0.03 0.03 0.03 0.03 0.02 0.02 0.02 0.02 0.02 0.02 0.02 0.01 0.01 0.02 0.02 0.02 0.02
MSLP
1024.84 1025.08 1025.33 1025.57 1025.79 1025.99 1026.16 1026.33 1026.50 1026.67 1026.85 1027.05 1027.24 1027.41 1027.56 1027.67 1027.75 1027.80 1027.85 1027.91 1028.00 1028.14 1028.31 1028.50 1028.70 1028.88 1029.01 1029.09 1029.09 1029.03 1028.94 1028.81 1028.68 1028.57 1028.47 1028.39 1028.30 1028.20 1028.06 1027.87 1027.63 1027.33 1027.01
1025.20 1025.45 1025.69 1025.91 1026.10 1026.28 1026.45 1026.62 1026.80 1027.00 1027.23 1027.46 1027.68 1027.88 1028.05 1028.17 1028.25 1028.31 1028.35 1028.41 1028.51 1028.64 1028.82 1029.02 1029.23 1029.42 1029.56 1029.65 1029.67 1029.64 1029.56 1029.46 1029.35 1029.25 1029.16 1029.09 1029.00 1028.89 1028.73 1028.51 1028.23 1027.89 1027.51
1025.47 1025.75 1025.99 1026.20 1026.38 1026.54 1026.71 1026.89 1027.10 1027.33 1027.59 1027.86 1028.12 1028.35 1028.53 1028.66 1028.74 1028.79 1028.83 1028.88 1028.96 1029.09 1029.26 1029.46 1029.67 1029.86 1030.02 1030.12 1030.17 1030.16 1030.11 1030.04 1029.97 1029.90 1029.83 1029.77 1029.70 1029.58 1029.41 1029.18 1028.87 1028.50 1028.08
1025.61 1025.93 1026.19 1026.41 1026.59 1026.76 1026.94 1027.14 1027.37 1027.64 1027.94 1028.25 1028.54 1028.79 1028.99 1029.12 1029.20 1029.25 1029.27 1029.31 1029.38 1029.49 1029.65 1029.83 1030.03 1030.23 1030.39 1030.50 1030.56 1030.58 1030.56 1030.51 1030.47 1030.42 1030.39 1030.34 1030.28 1030.18 1030.01 1029.78 1029.47 1029.08 1028.64
1025.58 1025.95 1026.25 1026.50 1026.70 1026.90 1027.10 1027.33 1027.60 1027.91 1028.24 1028.58 1028.90 1029.17 1029.39 1029.53 1029.61 1029.65 1029.67 1029.70 1029.76 1029.85 1029.99 1030.16 1030.34 1030.52 1030.67 1030.78 1030.85 1030.87 1030.86 1030.83 1030.80 1030.77 1030.75 1030.72 1030.67 1030.59 1030.44 1030.22 1029.92 1029.55 1029.11
1025.35 1025.79 1026.15 1026.44 1026.69 1026.92 1027.17 1027.44 1027.75 1028.09 1028.46 1028.83 1029.17 1029.46 1029.68 1029.84 1029.93 1029.97 1029.99 1030.02 1030.07 1030.16 1030.28 1030.44 1030.60 1030.76 1030.89 1030.98 1031.03 1031.03 1031.01 1030.98 1030.94 1030.91 1030.89 1030.87 1030.84 1030.77 1030.65 1030.46 1030.20 1029.86 1029.45
1024.92 1025.43 1025.86 1026.22 1026.53 1026.82 1027.12 1027.44 1027.79 1028.17 1028.56 1028.95 1029.30 1029.61 1029.84 1030.01 1030.11 1030.18 1030.21 1030.25 1030.31 1030.40 1030.52 1030.66 1030.80 1030.94 1031.04 1031.10 1031.11 1031.09 1031.04 1030.98 1030.92 1030.88 1030.85 1030.82 1030.79 1030.74 1030.65 1030.49 1030.27 1029.98 1029.61
1024.31 1024.89 1025.39 1025.83 1026.22 1026.58 1026.94 1027.31 1027.70 1028.10 1028.51 1028.91 1029.28 1029.59 1029.84 1030.02 1030.15 1030.24 1030.30 1030.37 1030.45 1030.56 1030.68 1030.82 1030.95 1031.06 1031.13 1031.15 1031.13 1031.07 1030.99 1030.89 1030.80 1030.73 1030.68 1030.64 1030.61 1030.56 1030.49 1030.36 1030.18 1029.94 1029.62
1023.56 1024.21 1024.79 1025.31 1025.78 1026.21 1026.63 1027.04 1027.47 1027.90 1028.32 1028.72 1029.08 1029.40 1029.66 1029.86 1030.02 1030.14 1030.25 1030.36 1030.48 1030.61 1030.75 1030.90 1031.02 1031.11 1031.16 1031.16 1031.10 1031.01 1030.89 1030.76 1030.64 1030.54 1030.47 1030.41 1030.37 1030.32 1030.26 1030.15 1030.00 1029.79 1029.51
1022.73 1023.44 1024.09 1024.68 1025.22 1025.72 1026.19 1026.65 1027.10 1027.54 1027.97 1028.37 1028.73 1029.05 1029.32 1029.55 1029.74 1029.91 1030.07 1030.23 1030.39 1030.56 1030.73 1030.89 1031.01 1031.10 1031.13 1031.11 1031.03 1030.92 1030.78 1030.63 1030.49 1030.38 1030.28 1030.21 1030.15 1030.10 1030.03 1029.93 1029.79 1029.59 1029.33
1021.86 1022.61 1023.32 1023.98 1024.58 1025.13 1025.65 1026.15 1026.61 1027.06 1027.48 1027.87 1028.23 1028.56 1028.85 1029.10 1029.34 1029.55 1029.77 1029.98 1030.19 1030.41 1030.60 1030.78 1030.91 1031.00 1031.03 1031.00 1030.92 1030.80 1030.66 1030.51 1030.37 1030.25 1030.15 1030.07 1030.00 1029.93 1029.85 1029.74 1029.59 1029.39 1029.13
1020.98 1021.77 1022.52 1023.23 1023.87 1024.47 1025.02 1025.54 1026.01 1026.46 1026.88 1027.27 1027.63 1027.96 1028.27 1028.56 1028.84 1029.11 1029.38 1029.65 1029.91 1030.15 1030.38 1030.57 1030.72 1030.81 1030.84 1030.82 1030.75 1030.64 1030.51 1030.38 1030.25 1030.14 1030.05 1029.97 1029.90 1029.82 1029.72 1029.59 1029.43 1029.21 1028.93
1020.12 1020.93 1021.71 1022.44 1023.12 1023.74 1024.31 1024.84 1025.32 1025.77 1026.19 1026.58 1026.95 1027.30 1027.64 1027.97 1028.29 1028.62 1028.94 1029.25 1029.55 1029.82 1030.07 1030.27 1030.42 1030.51 1030.55 1030.53 1030.47 1030.39 1030.29 1030.19 1030.10 1030.01 1029.94 1029.88 1029.81 1029.72 1029.61 1029.46 1029.27 1029.03 1028.73
1019.27 1020.09 1020.87 1021.62 1022.31 1022.95 1023.53 1024.07 1024.55 1025.00 1025.42 1025.83 1026.21 1026.59 1026.97 1027.34 1027.72 1028.09 1028.46 1028.80 1029.13 1029.42 1029.67 1029.87 1030.01 1030.10 1030.14 1030.13 1030.09 1030.03 1029.96 1029.90 1029.85 1029.80 1029.76 1029.72 1029.66 1029.58 1029.46 1029.30 1029.09 1028.83 1028.51
1018.42 1019.23 1020.02 1020.77 1021.47 1022.11 1022.70 1023.23 1023.73 1024.18 1024.62 1025.04 1025.45 1025.87 1026.29 1026.71 1027.13 1027.55 1027.95 1028.33 1028.67 1028.96 1029.20 1029.39 1029.51 1029.58 1029.61 1029.60 1029.57 1029.54 1029.50 1029.48 1029.47 1029.46 1029.46 1029.45 1029.41 1029.34 1029.23 1029.07 1028.85 1028.57 1028.25
1017.54 1018.34 1019.13 1019.87 1020.58 1021.22 1021.81 1022.35 1022.86 1023.33 1023.79 1024.23 1024.68 1025.14 1025.60 1026.07 1026.53 1026.99 1027.42 1027.81 1028.15 1028.44 1028.66 1028.82 1028.91 1028.96 1028.97 1028.96 1028.93 1028.91 1028.90 1028.91 1028.94 1028.97 1029.01 1029.03 1029.03 1028.98 1028.89 1028.74 1028.53 1028.26 1027.94
1016.63 1017.42 1018.20 1018.95 1019.64 1020.29 1020.89 1021.44 1021.96 1022.45 1022.93 1023.41 1023.90 1024.39 1024.89 1025.40 1025.90 1026.38 1026.82 1027.22 1027.56 1027.83 1028.02 1028.15 1028.22 1028.24 1028.23 1028.20 1028.18 1028.17 1028.18 1028.21 1028.27 1028.35 1028.42 1028.48 1028.51 1028.50 1028.44 1028.31 1028.13 1027.88 1027.58
1015.69 1016.48 1017.25 1017.99 1018.68 1019.34 1019.94 1020.51 1021.04 1021.56 1022.06 1022.57 1023.08 1023.61 1024.14 1024.67 1025.19 1025.68 1026.14 1026.53 1026.85 1027.10 1027.28 1027.38 1027.42 1027.42 1027.39 1027.36 1027.34 1027.33 1027.36 1027.42 1027.51 1027.62 1027.73 1027.83 1027.91 1027.94 1027.91 1027.83 1027.67 1027.46 1027.18
1014.74 1015.51 1016.28 1017.02 1017.72 1018.37 1018.99 1019.57 1020.11 1020.64 1021.16 1021.69 1022.22 1022.76 1023.30 1023.84 1024.37 1024.86 1025.31 1025.69 1026.00 1026.23 1026.39 1026.48 1026.51 1026.50 1026.46 1026.43 1026.41 1026.43 1026.48 1026.56 1026.68 1026.83 1026.98 1027.12 1027.23 1027.31 1027.33 1027.29 1027.19 1027.01 1026.76
1013.80 1014.56 1015.32 1016.06 1016.76 1017.42 1018.04 1018.62 1019.17 1019.71 1020.23 1020.75 1021.28 1021.82 1022.36 1022.89 1023.40 1023.88 1024.31 1024.68 1024.98 1025.20 1025.34 1025.43 1025.46 1025.45 1025.43 1025.42 1025.42 1025.46 1025.54 1025.66 1025.81 1025.99 1026.19 1026.37 1026.53 1026.65 1026.72 1026.73 1026.67 1026.53 1026.32
1012.90 1013.65 1014.40 1015.13 1015.83 1016.48 1017.10 1017.67 1018.22 1018.74 1019.25 1019.76 1020.27 1020.78 1021.29 1021.79 1022.28 1022.73 1023.14 1023.49 1023.77 1023.99 1024.13 1024.23 1024.27 1024.29 1024.30 1024.31 1024.35 1024.43 1024.55 1024.71 1024.91 1025.13 1025.36 1025.59 1025.80 1025.97 1026.08 1026.13 1026.11 1026.01 1025.83
1012.07 1012.80 1013.54 1014.25 1014.94 1015.58 1016.18 1016.73 1017.26 1017.75 1018.23 1018.71 1019.18 1019.65 1020.11 1020.58 1021.02 1021.44 1021.82 1022.15 1022.42 1022.63 1022.79 1022.89 1022.97 1023.02 1023.06 1023.12 1023.21 1023.33 1023.50 1023.70 1023.95 1024.22 1024.50 1024.77 1025.03 1025.24 1025.39 1025.48 1025.49 1025.43 1025.27
1011.32 1012.03 1012.75 1013.44 1014.10 1014.71 1015.28 1015.80 1016.29 1016.75 1017.19 1017.61 1018.03 1018.45 1018.87 1019.28 1019.68 1020.06 1020.41 1020.72 1020.98 1021.19 1021.35 1021.48 1021.58 1021.67 1021.76 1021.86 1021.99 1022.17 1022.38 1022.64 1022.93 1023.25 1023.57 1023.89 1024.18 1024.43 1024.63 1024.75 1024.79 1024.74 1024.60
1010.65 1011.34 1012.02 1012.68 1013.30 1013.87 1014.40 1014.89 1015.33 1015.74 1016.13 1016.51 1016.88 1017.25 1017.62 1017.99 1018.35 1018.69 1019.01 1019.29 1019.54 1019.75 1019.92 1020.06 1020.19 1020.30 1020.42 1020.56 1020.74 1020.95 1021.21 1021.51 1021.84 1022.20 1022.57 1022.93 1023.26 1023.54 1023.76 1023.91 1023.97 1023.94 1023.82
1010.06 1010.71 1011.35 1011.96 1012.54 1013.07 1013.55 1013.99 1014.39 1014.76 1015.11 1015.44 1015.77 1016.11 1016.44 1016.77 1017.09 1017.41 1017.70 1017.97 1018.20 1018.40 1018.57 1018.71 1018.85 1018.98 1019.11 1019.28 1019.47 1019.72 1020.00 1020.33 1020.70 1021.09 1021.49 1021.88 1022.24 1022.55 1022.80 1022.97 1023.05 1023.03 1022.92
1009.49 1010.10 1010.70 1011.27 1011.79 1012.28 1012.73 1013.13 1013.49 1013.83 1014.15 1014.46 1014.76 1015.07 1015.38 1015.69 1015.99 1016.29 1016.56 1016.81 1017.03 1017.21 1017.37 1017.50 1017.62 1017.75 1017.88 1018.04 1018.25 1018.49 1018.79 1019.13 1019.52 1019.93 1020.35 1020.76 1021.14 1021.48 1021.75 1021.94 1022.03 1022.04 1021.94
Thickness
5706 5705 5702 5700 5698 5696 5693 5692 5691 5689 5688 5686 5685 5684 5682 5679 5678 5675 5673 5672 5669 5667 5666 5664 5662 5661 5659 5657 5656 5654 5651 5648 5642 5642 5644 5644 5643 5641 5639 5638 5637 5635 5634
5704 5701 5699 5696 5694 5691 5689 5689 5688 5686 5685 5683 5682 5679 5678 5675 5673 5671 5668 5667 5664 5662 5660 5659 5657 5656 5654 5652 5649 5648 5646 5644 5639 5636 5636 5636 5636 5635 5634 5632 5631 5629 5628
5701 5698 5695 5692 5689 5687 5686 5685 5685 5683 5681 5680 5678 5675 5673 5671 5669 5667 5665 5662 5660 5658 5656 5654 5652 5650 5647 5646 5644 5642 5640 5639 5635 5632 5630 5630 5630 5629 5627 5626 5624 5623 5623
5697 5694 5691 5688 5686 5684 5683 5682 5681 5679 5677 5676 5673 5671 5669 5667 5665 5662 5660 5658 5656 5654 5652 5650 5648 5646 5643 5641 5639 5636 5634 5631 5629 5626 5624 5623 5622 5622 5620 5617 5616 5615 5615
5692 5689 5687 5686 5683 5681 5678 5677 5675 5674 5673 5671 5668 5666 5665 5662 5660 5657 5655 5653 5650 5648 5647 5645 5643 5642 5640 5638 5635 5631 5628 5625 5622 5619 5616 5615 5614 5613 5611 5611 5608 5608 5607
5688 5685 5683 5681 5679 5676 5674 5672 5670 5668 5667 5665 5663 5661 5659 5657 5655 5653 5650 5647 5646 5643 5641 5640 5638 5636 5634 5631 5629 5626 5624 5620 5616 5612 5610 5607 5607 5607 5606 5604 5601 5599 5597
5684 5681 5679 5676 5673 5671 5670 5667 5664 5662 5661 5659 5657 5655 5653 5651 5649 5647 5645 5642 5640 5638 5636 5634 5633 5630 5627 5623 5621 5619 5616 5614 5612 5609 5605 5603 5601 5601 5599 5597 5594 5592 5589
5679 5677 5675 5671 5668 5665 5663 5660 5659 5657 5655 5653 5651 5649 5647 5645 5643 5641 5639 5636 5635 5633 5631 5629 5626 5623 5622 5618 5614 5611 5609 5607 5605 5603 5600 5598 5596 5595 5592 5590 5588 5586 5584
5673 5672 5670 5667 5662 5659 5656 5654 5653 5651 5649 5647 5646 5644 5641 5639 5637 5635 5632 5629 5627 5626 5625 5623 5620 5617 5616 5613 5608 5604 5601 5599 5598 5596 5593 5591 5589 5587 5585 5582 5579 5576 5573
5668 5667 5665 5663 5658 5654 5652 5649 5647 5645 5643 5641 5639 5638 5636 5632 5630 5628 5625 5622 5620 5619 5618 5616 5614 5612 5609 5606 5602 5598 5594 5592 5590 5588 5585 5584 5581 5579 5577 5574 5571 5567 5564
5663 5661 5660 5657 5654 5651 5647 5645 5642 5639 5636 5634 5632 5631 5630 5627 5624 5621 5618 5615 5613 5612 5610 5608 5607 5605 5602 5600 5596 5593 5590 5588 5584 5582 5579 5576 5574 5571 5569 5567 5564 5561 5557
5656 5654 5652 5651 5649 5647 5642 5638 5636 5633 5630 5627 5624 5623 5622 5620 5618 5615 5612 5609 5608 5605 5603 5602 5601 5599 5596 5593 5590 5588 5585 5582 5578 5574 5571 5568 5566 5563 5561 5559 5557 5554 5552
5648 5647 5646 5644 5642 5641 5637 5632 5629 5627 5623 5621 5618 5616 5614 5613 5611 5608 5605 5603 5600 5598 5597 5596 5594 5591 5588 5585 5583 5581 5578 5574 5570 5566 5564 5561 5559 5557 5554 5552 5549 5547 5545
5640 5639 5639 5637 5635 5633 5631 5628 5624 5621 5618 5615 5613 5610 5608 5605 5603 5600 5597 5595 5593 5590 5589 5588 5586 5583 5581 5578 5576 5573 5570 5567 5564 5560 5557 5555 5552 5549 5546 5543 5540 5537 5534
5634 5633 5631 5630 5628 5625 5623 5621 5619 5617 5615 5612 5609 5606 5603 5599 5598 5596 5592 5590 5587 5585 5582 5579 5577 5574 5571 5569 5567 5565 5562 5559 5556 5553 5549 5546 5543 5541 5538 5535 5531 5528 5524
5627 5626 5624 5622 5620 5618 5616 5613 5612 5611 5609 5607 5604 5601 5599 5596 5593 5590 5587 5585 5582 5579 5575 5572 5570 5568 5565 5562 5560 5557 5554 5551 5548 5545 5541 5538 5535 5532 5529 5526 5523 5520 5516
5621 5619 5617 5616 5614 5611 5609 5606 5603 5601 5600 5599 5596 5594 5592 5589 5586 5584 5581 5578 5575 5572 5568 5566 5564 5562 5559 5556 5554 5551 5547 5545 5541 5537 5534 5531 5528 5525 5522 5518 5515 5511 5508
5615 5612 5610 5608 5607 5605 5603 5600 5598 5595 5592 5589 5587 5586 5584 5582 5579 5576 5573 5569 5565 5564 5562 5559 5557 5555 5553 5550 5547 5544 5540 5537 5534 5530 5526 5523 5520 5516 5513 5510 5507 5504 5501
5607 5604 5603 5601 5599 5598 5595 5593 5591 5589 5586 5583 5579 5576 5575 5572 5569 5567 5564 5561 5559 5557 5555 5553 5551 5548 5546 5543 5541 5537 5533 5530 5527 5523 5520 5516 5513 5509 5505 5503 5500 5498 5494
5598 5597 5595 5592 5591 5589 5588 5586 5584 5581 5579 5575 5572 5569 5566 5562 5558 5556 5554 5553 5552 5550 5549 5547 5544 5542 5539 5537 5534 5530 5526 5523 5520 5516 5513 5509 5506 5502 5499 5496 5493 5491 5488
5589 5588 5587 5584 5583 5581 5580 5578 5576 5573 5571 5568 5566 5563 5559 5556 5553 5550 5548 5546 5545 5543 5542 5540 5538 5535 5533 5530 5527 5523 5520 5517 5514 5511 5507 5503 5500 5497 5494 5490 5488 5485 5482
5581 5579 5578 5576 5575 5573 5571 5570 5568 5566 5563 5560 5558 5555 5552 5550 5547 5545 5542 5541 5539 5537 5536 5533 5531 5529 5526 5524 5521 5517 5514 5511 5507 5504 5500 5497 5494 5490 5487 5485 5482 5479 5476
5573 5571 5569 5568 5567 5565 5563 5561 5560 5558 5555 5553 5550 5548 5545 5543 5541 5539 5537 5535 5533 5531 5529 5527 5525 5522 5520 5517 5515 5512 5508 5505 5501 5498 5495 5491 5488 5484 5481 5479 5476 5473 5470
5564 5563 5561 5559 5558 5556 5554 5553 5551 5550 5547 5545 5543 5541 5538 5536 5534 5533 5530 5528 5526 5524 5522 5520 5518 5516 5514 5511 5508 5505 5502 5499 5496 5493 5490 5487 5483 5479 5476 5473 5470 5467 5464
5556 5554 5553 5551 5550 5548 5547 5545 5544 5542 5540 5537 5535 5534 5532 5530 5527 5526 5523 5521 5519 5518 5516 5514 5512 5509 5507 5504 5501 5499 5496 5493 5490 5487 5484 5481 5478 5474 5471 5468 5464 5461 5457
5548 5546 5545 5544 5542 5541 5539 5538 5536 5534 5532 5530 5528 5527 5525 5523 5520 5518 5516 5514 5512 5510 5509 5507 5505 5503 5500 5497 5494 5492 5489 5486 5483 5480 5477 5474 5471 5468 5465 5462 5459 5455 5452